This is the latest recevied weather packets stored in our database for station/object DL4MGC-10. If no packets are shown the sender has not sent any weather packets the latest 10 day(s).
| Time | Temp. | Humidity | Pressure | Rain* | Wind** | Luminosity | Snow |
|---|---|---|---|---|---|---|---|
| 1788441140 | 27.22° C | 51% | 1021.6 hPa | - | - | - | - |
| 1788440240 | 26.11° C | 52% | 1021.6 hPa | - | - | - | - |
| 1788439340 | 26.11° C | 51% | 1021.7 hPa | - | - | - | - |
| 1788438440 | 26.11° C | 49% | 1021.5 hPa | - | - | - | - |
| 1788437540 | 26.11° C | 49% | 1021.7 hPa | - | - | - | - |
| 1788436640 | 25.56° C | 49% | 1021.9 hPa | - | - | - | - |
| 1788435740 | 26.67° C | 47% | 1021.9 hPa | - | - | - | - |
| 1788434854 | 27.78° C | 47% | 1022.1 hPa | - | - | - | - |
| 1788433939 | 26.11° C | 48% | 1022.1 hPa | - | - | - | - |
| 1788433039 | 27.22° C | 48% | 1022.2 hPa | - | - | - | - |
| 1788432139 | 26.67° C | 48% | 1022.3 hPa | - | - | - | - |
| 1788431239 | 25.56° C | 49% | 1022.4 hPa | - | - | - | - |
| 1788430339 | 25° C | 50% | 1022.4 hPa | - | - | - | - |
| 1788429439 | 25.56° C | 53% | 1022.5 hPa | - | - | - | - |
| 1788428539 | 24.44° C | 55% | 1022.6 hPa | - | - | - | - |
| 1788427639 | 23.89° C | 58% | 1022.6 hPa | - | - | - | - |
| 1788426738 | 23.89° C | 59% | 1022.8 hPa | - | - | - | - |
| 1788425838 | 24.44° C | 58% | 1022.8 hPa | - | - | - | - |
| 1788424938 | 24.44° C | 60% | 1023 hPa | - | - | - | - |
| 1788424038 | 23.89° C | 61% | 1022.9 hPa | - | - | - | - |
| 1788423138 | 23.89° C | 64% | 1022.9 hPa | - | - | - | - |
| 1788422238 | 23.33° C | 64% | 1022.8 hPa | - | - | - | - |
| 1788421338 | 22.22° C | 70% | 1022.6 hPa | - | - | - | - |
| 1788420438 | 20° C | 74% | 1022.6 hPa | - | - | - | - |
| 1788419538 | 20° C | 74% | 1022.7 hPa | - | - | - | - |
* Rain since midnight (hover to see other rain measurements)
** Current wind speed in m/s (hover to see current wind gust speed)